Location: Newark
(13.5236°S, 71.9791°W)
Time: 04:23:51
(UTC+00:00)

OTV 5 (USA 277) - Visible Passes

Search period start: 21 July 2019 00:00
Search period end: 31 July 2019 00:00
Orbit: 299 x 335 km, 54.5° (Epoch: 13 July)

Date Brightness Start Highest point End Pass type
(mag) Time Alt. Az. Time Alt. Az. Time Alt. Az.
22 Jul ? 10:25:09 10° SSW 10:27:38 38° SE 10:30:05 10° NE visible
22 Jul ? 23:25:21 10° N 23:27:53 31° ENE 23:28:49 24° E visible
23 Jul ? 10:39:52 11° WSW 10:42:07 30° WNW 10:44:28 10° N visible
23 Jul ? 23:39:43 10° NW 23:42:23 41° SW 23:43:45 23° S visible
24 Jul ? 09:23:51 13° E 09:23:51 13° E 09:24:25 10° E visible
24 Jul ? 23:56:25 10° WSW 23:56:59 10° SW 23:57:35 10° SW visible
25 Jul ? 09:38:46 19° NNE 09:38:46 19° NNE 09:39:39 10° NNE visible
